This demonstration page uses our WeatherBlox Daily Observations layout. Learn more.

Left ArrowRight Arrow

41.55636, -103.73856

Hourly Observations for October 13, 2016

Temp ( °F °C ) Dew Point ( °F °C ) Humidity (%) Winds ( mph kmh ) Pressure ( in mb ) Visibility ( mi km ) Precip ( " mm )
12:53 am 00:53 Clear 38 3.3 35 1.7 89 89 E 8 13 30.13 1020 10 16 0.00 0.00
1:53 am 01:53 Clear 36 2.2 34 1.1 93 93 E 8 13 30.12 1020 8 13 0.00 0.00
2:53 am 02:53 Clear 36 2.2 34 1.1 93 93 E 8 13 30.09 1019 7 11 0.00 0.00
3:53 am 03:53 Clear 35 1.7 32 0 89 89 ENE 3 6 30.08 1019 7 11 0.00 0.00
4:44 am 04:44 Clear with Mist and Fog 30 -1 28 -2 93 93 NW 3 6 30.24 1024 2 3 0.00 0.00
4:53 am 04:53 Clear with Mist and Fog 30 -1.1 28 -2.2 92 92 NNW 5 7 30.09 1019 4 6 0.00 0.00
5:29 am 05:29 Partly Cloudy with Mist and Fog 28 -2.2 26 -3.3 92 92 NW 7 11 30.24 1024 4 6 0.00 0.00
5:35 am 05:35 Mostly Cloudy with Mist and Fog 28 -2.2 26 -3.3 92 92 NNW 5 7 30.24 1024 3 4 0.00 0.00
5:39 am 05:39 Mostly Cloudy with Mist and Fog 27 -2.8 26 -3.3 96 96 NNW 6 9 30.27 1025 1 1 0.00 0.00
5:53 am 05:53 Mostly Cloudy with Freezing Fog 28 -2.2 26 -3.3 92 92 NW 6 9 30.11 1020 1 1 0.00 0.00
6:13 am 06:13 Mostly Cloudy with Freezing Fog 28 -2.2 26 -3.3 92 92 NW 5 7 30.24 1024 0 0 0.00 0.00
6:53 am 06:53 Mostly Cloudy with Freezing Fog 28 -2.2 26 -3.3 92 92 NW 3 6 30.11 1020 0 0 0.00 0.03
7:41 am 07:41 Mostly Cloudy with Freezing Fog 30 -1.1 28 -2.2 92 92 WNW 3 6 30.24 1024 5 8 0.00 0.00
7:53 am 07:53 Mostly Cloudy with Freezing Fog 30 -1.1 28 -2.2 92 92 NW 5 7 30.13 1020 5 8 0.00 0.00
8:03 am 08:03 Mostly Cloudy with Freezing Fog 30 -1.1 29 -1.7 96 96 NW 5 7 30.24 1024 5 8 0.00 0.00
8:53 am 08:53 Mostly Cloudy with Fog 32 0 31 -0.6 96 96 WNW 3 6 30.13 1020 0 0 0.00 0.00
9:53 am 09:53 Mostly Cloudy with Fog 37 2.8 36 2.2 96 96 Calm 30.11 1020 0 0 0.00 0.00
10:10 am 10:10 Cloudy with Mist and Fog 39 4 37 3 93 93 Calm 30.15 1021 1 1 0.00 0.00
10:16 am 10:16 Cloudy with Mist and Fog 39 4 37 3 93 93 SSE 3 6 30.15 1021 2 3 0.00 0.00
10:24 am 10:24 Mostly Cloudy with Mist and Fog 39 4 37 3 93 93 Calm 30.15 1021 6 10 0.00 0.00
10:34 am 10:34 Partly Cloudy 41 5 37 3 87 87 SE 3 6 30.09 1019 9 14 0.00 0.00
10:53 am 10:53 Sunny 46 7.8 39 3.9 77 77 Calm 30.07 1018 10 16 0.00 0.00
11:53 am 11:53 Sunny 56 13.3 39 3.9 53 53 SE 5 7 30.02 1017 10 16 0.00 0.00
12:53 pm 12:53 Sunny 67 19.4 36 2.2 32 32 VRB 6 9 29.98 1015 10 16 0.00 0.00
1:53 pm 13:53 Sunny 74 23.3 27 -2.8 17 17 NW 8 13 29.93 1014 10 16 0.00 0.00
2:53 pm 14:53 Sunny 76 24.4 21 -6.1 13 13 NW 10 17 29.91 1013 10 16 0.00 0.00
3:53 pm 15:53 Sunny 77 25 21 -6.1 12 12 NNW 6 9 29.89 1012 10 16 0.00 0.00
4:53 pm 16:53 Sunny 76 24.4 19 -7.2 12 12 E 5 7 29.89 1012 10 16 0.00 0.00
5:53 pm 17:53 Sunny 68 20 25 -3.9 20 20 E 6 9 29.93 1013 10 16 0.00 0.00
6:53 pm 18:53 Clear 55 12.8 26 -3.3 33 33 E 3 6 29.97 1015 10 16 0.00 0.00
7:53 pm 19:53 Clear 55 12.8 29 -1.7 37 37 E 5 7 29.95 1014 10 16 0.00 0.00
8:53 pm 20:53 Clear 50 10 34 1.1 54 54 undefined N/A 29.97 1015 10 16 0.00 0.00
9:53 pm 21:53 Clear 50 10 39 3.9 66 66 ESE 7 11 29.96 1014 10 16 0.00 0.00
10:53 pm 22:53 Clear 47 8.3 39 3.9 74 74 E 8 13 29.93 1013 10 16 0.00 0.00
11:53 pm 23:53 Clear 44 6.7 38 3.3 79 79 E 7 11 29.91 1013 10 16 0.00 0.00

Powered by AerisWeather